Location: Highland Station (historical)
(44.9576°N, 123.0284°W)
Time: 00:41:55
(UTC+00:00)

X-37B - Visible Passes

Search period start: 21 September 2020 00:00
Search period end: 01 October 2020 00:00
Orbit: 386 x 387 km, 45.0° (Epoch: 18 September)

Date Brightness Start Highest point End Pass type
(mag) Time Alt. Az. Time Alt. Az. Time Alt. Az.
21 Sep 3.5 11:23:27 16° E 11:23:27 16° E 11:24:13 10° E visible
21 Sep 1.0 12:55:45 21° W 12:57:35 47° SSW 13:00:39 10° SE visible
22 Sep 1.7 12:00:04 38° SE 12:00:04 38° SE 12:02:13 10° ESE visible
23 Sep 1.5 12:36:48 30° SSW 12:36:55 31° SSW 12:39:46 10° SE visible
24 Sep 3.6 11:41:23 11° SE 11:41:23 11° SE 11:41:31 10° SE visible
24 Sep 2.8 13:13:41 11° SW 13:14:33 12° SW 13:15:47 10° SSW visible
25 Sep 3.3 12:18:25 11° SSE 12:18:25 11° SSE 12:18:35 10° SSE visible
